Retour au catalogue

THORAD AGENA D DEB

ActifPO
NORAD 4681·DEBRIS·🇺🇸 United States

Lancé Apr 8, 1970 depuis Vandenberg Space Force Base

Loading…

Prochains Passages (prochaines 24 heures)

TLE

FraisSource: Space-Track

Époque: Sep 14, 2026, 20:20 UTC

1 04681U 70025BE  26257.84738537  .00000115  00000-0  39359-3 0  9999
2 04681  99.8342 112.8036 0240571 198.6657 185.2467 13.08912487686925

Suivez THORAD AGENA D DEB en temps réel avec AllMySat

Download on the App Store